Weather History for Rogers, AR

Change the Weather History Date:

Thursday, November 22, 2012

  Actual Average Record
Temperature  
Mean Temperature 59 °F -  
Max Temperature 66 °F 54 °F 71 °F (2003)
Min Temperature 52 °F 36 °F 24 °F (2007)
Degree Days  
Heating Degree Days 6    
Growing Degree Days 9 (Base 50)    
Moisture  
Dew Point 44 °F    
Average Humidity 56    
Maximum Humidity 67    
Minimum Humidity 45    
Precipitation  
Precipitation 0.00 in - - ()
Sea Level Pressure  
Sea Level Pressure 30.07 in    
Wind  
Wind Speed 12 mph (South)    
Max Wind Speed 21 mph    
Max Gust Speed 30 mph    
Visibility 10 miles    
Events Rain    
Averages and records for this station are not official NWS values.
T = Trace of Precipitation, MM = Missing Value Source: NWS Daily Summary

Daily Weather History Graph

Daily Weather History Graph

Search for Another Location

Airport:

Trip Planner

Search our weather history database for the weather conditions in past years. The results will help you decide how hot, cold, wet, or windy it might be!

Date:

Astronomy

Nov. 22, 2012 Rise Set
Actual Time 7:01 AM CST 5:03 PM CST
Civil Twilight 6:33 AM CST 5:31 PM CST
Nautical Twilight 6:01 AM CST 6:03 PM CST
Astronomical Twilight 5:31 AM CST 6:34 PM CST
Moon 1:42 PM CST (11/22) 1:30 AM CST (11/22)
Length of Visible Light 10h 58m
Length of Day
10h 02m
Waxing Gibbous, 71% of the Moon is Illuminated
Nov 22
Waxing Gibbous
Nov 28
Full
Dec 6
Last Quarter
Dec 13
New
Dec 19
First Quarter

Hourly Weather History & Observations

Time (CST) Temp. Dew Point Humidity Pressure Visibility Wind Dir Wind Speed Gust Speed Precip Events Conditions
12:57 AM 52.0 °F 37.0 °F 57% 30.09 in 10.0 mi SSE 10.4 mph - N/A   Clear
1:57 AM 52.0 °F 37.9 °F 59% 30.08 in 10.0 mi SSE 10.4 mph - N/A   Clear
2:57 AM 53.1 °F 39.0 °F 59% 30.07 in 10.0 mi SSE 9.2 mph - N/A   Clear
3:57 AM 53.1 °F 39.0 °F 59% 30.06 in 10.0 mi SSE 6.9 mph - N/A   Clear
5:57 AM 55.0 °F 39.0 °F 55% 30.07 in 10.0 mi SSE 8.1 mph - N/A   Clear
6:57 AM 54.0 °F 39.0 °F 57% - 10.0 mi South 8.1 mph - N/A   Clear
7:57 AM 55.0 °F 39.9 °F 57% 30.09 in 10.0 mi South 9.2 mph - N/A   Clear
8:57 AM 57.9 °F 41.0 °F 53% 30.09 in 10.0 mi South 11.5 mph - N/A   Clear
9:57 AM 61.0 °F 42.1 °F 50% 30.09 in 10.0 mi SSW 20.7 mph 29.9 mph N/A   Clear
10:57 AM 64.0 °F 44.1 °F 48% 30.06 in 10.0 mi South 19.6 mph 24.2 mph N/A   Clear
11:57 AM 66.0 °F 45.0 °F 47% 30.04 in 10.0 mi South 15.0 mph 23.0 mph N/A   Clear
12:57 PM 66.9 °F 45.0 °F 45% 30.01 in 10.0 mi SSW 20.7 mph 24.2 mph N/A   Clear
1:57 PM 66.0 °F 45.0 °F 47% 30.00 in 10.0 mi South 18.4 mph 26.5 mph N/A   Mostly Cloudy
2:57 PM 64.9 °F 46.0 °F 50% 29.99 in 10.0 mi South 13.8 mph 25.3 mph 0.00 in   Mostly Cloudy
3:57 PM 64.9 °F 46.0 °F 50% 29.99 in 10.0 mi South 19.6 mph - N/A   Overcast
4:57 PM 64.0 °F 45.0 °F 50% 30.00 in 10.0 mi South 12.7 mph - N/A   Mostly Cloudy
5:57 PM 62.1 °F 46.9 °F 58% 30.01 in 10.0 mi SSE 9.2 mph - 0.00 in   Overcast
6:57 PM 59.0 °F 48.0 °F 67% 30.06 in 10.0 mi SSW 6.9 mph - 0.00 in   Partly Cloudy
7:57 PM 60.1 °F 48.0 °F 64% 30.08 in 10.0 mi SW 3.5 mph - N/A   Overcast
8:57 PM 61.0 °F 48.0 °F 62% 30.08 in 10.0 mi SSW 11.5 mph - N/A   Overcast
9:57 PM 60.1 °F 48.0 °F 64% 30.09 in 10.0 mi South 10.4 mph - N/A   Overcast
10:57 PM 60.1 °F 48.9 °F 67% 30.14 in 10.0 mi WNW 12.7 mph - 0.00 in Rain Light Rain
11:36 PM 59.0 °F 46.4 °F 63% 30.19 in 10.0 mi North 13.8 mph 26.5 mph 0.00 in   Overcast
11:57 PM 57.0 °F 45.0 °F 64% 30.19 in 10.0 mi North 13.8 mph 20.7 mph 0.00 in   Overcast